Date String (YYYY-MM-DD hh:mm:ss) UTC,Instrument flags,Ambient pressure (hPa),Sample flow (lpm),Bypass flow (lpm),Sample temperature (°C),Ambient temperature (°C),ASC tube jacket temperature (°C),LED temperature (°C),Box temperature (°C),Sample RH (%),Mass concentration (μg/m³),Mass concentration (μg/m³)
DateTimeUTC,F1_M11,P_M11,Q1_M11,Q2_M11,T1_M11,T2_M11,T3_M11,T4_M11,T5_M11,U1_M11,X0_M11,X2_M11
2021-08-18 11:00:00,,0822.6,5.01,0.00,30.1,29.2,00.0,39.1,31.9,18.4,0023.08,0016.52
2021-08-18 11:01:00,,0822.6,5.01,0.00,30.1,29.1,00.0,39.1,31.9,18.3,0023.08,0016.53
2021-08-18 11:02:00,,0822.6,5.00,0.00,30.1,27.6,00.0,39.1,31.5,18.5,0023.22,0016.57
2021-08-18 11:03:00,,0822.6,4.99,0.00,29.9,26.4,00.0,39.1,31.1,18.7,0023.09,0016.57
2021-08-18 11:04:00,,0822.6,5.00,0.00,29.8,26.5,00.0,39.1,31.2,19.0,0023.04,0016.57
2021-08-18 11:05:00,,0822.6,4.99,0.00,29.7,26.9,00.0,39.0,31.2,18.9,0023.39,0016.54
2021-08-18 11:06:00,,0822.6,5.00,0.00,29.7,27.2,00.0,39.0,31.3,18.7,0023.39,0016.50
2021-08-18 11:07:00,,0822.6,5.01,0.00,29.7,27.6,00.0,38.9,31.3,18.7,0023.34,0016.43
2021-08-18 11:08:00,,0822.6,4.98,0.00,29.7,27.8,00.0,38.9,31.4,18.6,0022.10,0016.41
2021-08-18 11:09:00,,0822.6,5.01,0.00,29.7,28.0,00.0,38.9,31.4,18.6,0022.03,0016.37
2021-08-18 11:10:00,,0822.6,5.01,0.00,29.7,28.2,00.0,38.9,31.4,18.6,0022.40,0016.29
2021-08-18 11:11:00,,0822.5,5.00,0.00,29.8,28.3,00.0,38.9,31.5,18.5,0022.35,0016.24
2021-08-18 11:12:00,,0822.6,4.99,0.00,29.8,28.4,00.0,38.9,31.5,18.5,0022.20,0016.18
2021-08-18 11:13:00,,0822.6,5.02,0.00,29.8,28.5,00.0,38.9,31.5,18.4,0022.11,0016.13
2021-08-18 11:14:00,,0822.6,4.99,0.00,29.8,28.6,00.0,38.9,31.6,18.4,0022.39,0016.14
2021-08-18 11:15:00,,0822.6,5.00,0.00,29.8,28.7,00.0,38.9,31.6,18.3,0022.21,0016.13
2021-08-18 11:16:00,,0822.6,4.99,0.00,29.9,28.7,00.0,38.9,31.6,18.3,0021.85,0016.14
2021-08-18 11:17:00,,0822.5,5.00,0.00,29.9,28.8,00.0,38.9,31.6,18.4,0021.82,0016.17
2021-08-18 11:18:00,,0822.5,5.01,0.00,29.9,28.8,00.0,38.9,31.7,18.4,0021.78,0016.18
2021-08-18 11:19:00,,0822.5,4.99,0.00,29.9,28.9,00.0,39.0,31.7,18.2,0021.75,0016.20
2021-08-18 11:20:00,,0822.4,5.01,0.00,30.0,28.9,00.0,39.0,31.7,18.2,0021.71,0016.17
2021-08-18 11:21:00,,0822.5,4.99,0.00,30.0,28.9,00.0,39.0,31.8,18.1,0021.19,0016.18
2021-08-18 11:22:00,,0822.4,5.01,0.00,30.0,29.0,00.0,39.0,31.8,18.4,0021.24,0016.24
2021-08-18 11:23:00,,0822.5,5.00,0.00,30.0,29.0,00.0,39.0,31.8,18.2,0021.86,0016.31
2021-08-18 11:24:00,,0822.4,4.99,0.00,30.0,29.1,00.0,39.0,31.8,18.1,0022.09,0016.35
2021-08-18 11:25:00,,0822.4,5.01,0.00,30.1,29.1,00.0,39.1,31.9,18.1,0021.48,0016.32
2021-08-18 11:26:00,,0822.4,5.00,0.00,30.1,29.1,00.0,39.1,31.9,18.1,0021.36,0016.31
2021-08-18 11:27:00,,0822.5,5.00,0.00,30.1,29.1,00.0,39.1,31.9,18.0,0021.32,0016.31
2021-08-18 11:28:00,,0822.5,5.00,0.00,30.1,29.1,00.0,39.1,31.9,18.0,0021.40,0016.32
2021-08-18 11:29:00,,0822.5,5.00,0.00,30.1,28.9,00.0,39.1,31.9,18.0,0021.14,0016.31
2021-08-18 11:30:00,,0822.5,5.01,0.00,30.0,27.0,00.0,39.1,31.3,18.1,0021.11,0016.33
2021-08-18 11:31:00,,0822.5,5.00,0.00,29.9,26.3,00.0,39.1,31.1,18.2,0021.17,0016.37
2021-08-18 11:32:00,,0822.5,5.00,0.00,29.8,26.6,00.0,39.0,31.1,18.3,0021.14,0016.42
2021-08-18 11:33:00,,0822.6,4.99,0.00,29.7,27.0,00.0,39.0,31.2,18.4,0021.12,0016.41
2021-08-18 11:34:00,,0822.6,5.00,0.00,29.7,27.3,00.0,38.9,31.3,18.4,0020.55,0016.40
2021-08-18 11:35:00,,0822.6,5.00,0.00,29.7,27.6,00.0,38.9,31.3,18.4,0020.54,0016.44
2021-08-18 11:36:00,,0822.6,4.99,0.00,29.7,27.9,00.0,38.9,31.3,18.4,0020.76,0016.51
2021-08-18 11:37:00,,0822.6,5.00,0.00,29.7,28.1,00.0,38.9,31.4,18.4,0020.87,0016.54
2021-08-18 11:38:00,,0822.6,5.00,0.00,29.7,28.2,00.0,38.9,31.4,18.4,0020.87,0016.52
2021-08-18 11:39:00,,0822.6,5.01,0.00,29.7,28.3,00.0,38.9,31.5,18.4,0020.84,0016.53
2021-08-18 11:40:00,,0822.6,4.99,0.00,29.8,28.4,00.0,38.9,31.5,18.4,0020.87,0016.53
2021-08-18 11:41:00,,0822.6,5.01,0.00,29.8,28.5,00.0,38.9,31.5,18.3,0020.83,0016.50
2021-08-18 11:42:00,,0822.6,4.99,0.00,29.8,28.6,00.0,38.9,31.6,18.3,0020.86,0016.46
2021-08-18 11:43:00,,0822.6,5.00,0.00,29.8,28.7,00.0,38.9,31.6,18.3,0020.83,0016.45
2021-08-18 11:44:00,,0822.6,5.00,0.00,29.9,28.8,00.0,38.9,31.7,18.3,0020.83,0016.43
2021-08-18 11:45:00,,0822.6,5.01,0.00,29.9,28.8,00.0,38.9,31.7,18.2,0020.77,0016.38
2021-08-18 11:46:00,,0822.6,5.00,0.00,29.9,28.9,00.0,39.0,31.8,18.2,0020.64,0016.31
2021-08-18 11:47:00,,0822.7,4.99,0.00,29.9,28.9,00.0,39.0,31.8,18.2,0020.47,0016.24
2021-08-18 11:48:00,,0822.6,5.01,0.00,30.0,29.0,00.0,39.0,31.8,18.3,0021.02,0016.22
2021-08-18 11:49:00,,0822.7,5.00,0.00,30.0,29.0,00.0,39.0,31.8,18.3,0022.27,0016.24
2021-08-18 11:50:00,,0822.7,5.00,0.00,30.0,29.1,00.0,39.0,31.9,18.3,0022.70,0016.20
2021-08-18 11:51:00,,0822.7,5.01,0.00,30.0,29.1,00.0,39.0,31.9,18.4,0022.76,0016.21
2021-08-18 11:52:00,,0822.7,4.99,0.00,30.1,29.2,00.0,39.1,31.9,18.5,0022.74,0016.24
2021-08-18 11:53:00,,0822.7,5.01,0.00,30.1,29.2,00.0,39.1,31.9,18.4,0022.77,0016.25
2021-08-18 11:54:00,,0822.7,4.99,0.00,30.1,29.3,00.0,39.1,32.0,18.2,0022.87,0016.20
2021-08-18 11:55:00,,0822.7,5.00,0.00,30.2,29.3,00.0,39.1,32.0,18.2,0022.90,0016.23
2021-08-18 11:56:00,,0822.7,5.02,0.00,30.2,29.2,00.0,39.1,31.9,18.1,0022.89,0016.24
2021-08-18 11:57:00,,0822.7,4.99,0.00,30.1,27.5,00.0,39.1,31.5,18.3,0022.92,0016.27
2021-08-18 11:58:00,,0822.7,5.00,0.00,29.9,26.4,00.0,39.1,31.2,18.5,0022.82,0016.27
2021-08-18 11:59:00,,0822.7,5.01,0.00,29.8,26.6,00.0,39.1,31.3,18.6,0022.37,0016.26
